Regional Weather Roundup
Issued by NWS

Home | Current Version | Previous Version | Graphics & Text | Print | Product List | Glossary Off
Versions: 1 2 3 4 5 6 7 8 9 10 11 12 13 14 15 16 17 18 19 20 21 22 23 24 25 26 27 28 29 30 31 32 33 34 35 36 37 38 39 40 41 42 43 44 45 46 47 48 49 50

000
ASUS43 KDTX 020001
RWRMI
MICHIGAN HOURLY REGIONAL WEATHER ROUNDUP
NATIONAL WEATHER SERVICE DETROIT/PONTIAC MI
800 PM EDT WED APR 01 2015

NOTE: "FAIR" INDICATES FEW OR NO CLOUDS BELOW 12,000 FEET WITH NO
SIGNIFICANT WEATHER AND/OR OBSTRUCTION TO VISIBILITY.

MIZ047>049-052>055-059>063-066>070-074>076-081>083-020100-
SOUTHEAST LOWER MICHIGAN

CITY           SKY/WX    TMP DP  RH WIND       PRES   REMARKS
ADRIAN         CLEAR     58  36  43 S8        30.01F
6HR MIN TEMP:  58; 6HR MAX TEMP:  66;

ALMA           PTCLDY    53  42  66 SE3       29.94S
ANN ARBOR      CLEAR     51  38  60 SE9       30.00S
BAD AXE        PTCLDY    45  37  71 SE7       29.99S
6HR MIN TEMP:  45; 6HR MAX TEMP:  53;

CARO           PTCLDY    51  36  56 SE9       29.97R
DETROIT CITY   CLEAR     52  39  61 SE12G17   30.02F
6HR MIN TEMP:  51; 6HR MAX TEMP:  55;

DETROIT        PTCLDY    50  37  61 S9        30.02F
6HR MIN TEMP:  50; 6HR MAX TEMP:  61;

FLINT          CLEAR     57  30  35 S7        29.96S
6HR MIN TEMP:  54; 6HR MAX TEMP:  62;

GROSSE ILE     CLEAR     45  37  76 SE8       30.01F
HILLSDALE      CLEAR     60  33  36 S6        29.99S
6HR MIN TEMP:  60; 6HR MAX TEMP:  66;

HOWELL         CLEAR     57  30  35 S8        29.96F
6HR MIN TEMP:  56; 6HR MAX TEMP:  62;


CITY           SKY/WX    TMP DP  RH WIND       PRES   REMARKS
JACKSON        CLEAR     61  32  33 S7        29.97F
6HR MIN TEMP:  60; 6HR MAX TEMP:  65;

LAMBERTVILLE   CLEAR     50  37  62 CALM      30.02F
LANSING        PTCLDY    60  32  34 S9        29.96S
6HR MIN TEMP:  56; 6HR MAX TEMP:  65;

LAPEER         FAIR      48  34  58 S6        29.99S
MASON          PTCLDY    59  32  36 CALM      29.96S
MONROE         CLEAR     43  36  75 SE9       30.01F
MT. CLEMENS    PTCLDY    43  37  79 SE12      29.99F
6HR MIN TEMP:  41; 6HR MAX TEMP:  50;

PONTIAC        MOCLDY    50  38  63 SE12      29.99S
6HR MIN TEMP:  50; 6HR MAX TEMP:  61;

PORT HOPE        N/A     42  34  73 SE10      29.97F
6HR MIN TEMP:  35; 6HR MAX TEMP:  43;

PORT HURON     CLEAR     45  39  81 SE9       30.02F
TRI CITIES     PTCLDY    54  34  46 S5        29.96F
6HR MIN TEMP:  50; 6HR MAX TEMP:  59;

TROY           CLEAR     51  38  63 CALM      30.03S
SAGINAW HB     PTCLDY    54  36  50 CALM      29.96S
$$
MIZ043>046-050>051-056>058-064>065-071>073-077>080-020100-
SOUTHWEST LOWER MICHIGAN

CITY           SKY/WX    TMP DP  RH WIND       PRES   REMARKS
BATTLE CREEK   PTCLDY    62  36  37 S10       29.95F
6HR MIN TEMP:  62; 6HR MAX TEMP:  67;

BENTON HARBOR  PTCLDY    65  36  34 S10       29.91F
6HR MIN TEMP:  63; 6HR MAX TEMP:  69;

BIG RAPIDS     PTCLDY    59  32  35 S8        29.90F
6HR MIN TEMP:  54; 6HR MAX TEMP:  62;

COLDWATER      CLEAR     61  33  34 S5        29.97S
6HR MIN TEMP:  61; 6HR MAX TEMP:  66;

FREMONT        FAIR      60  28  29 S5        29.89F
6HR MIN TEMP:  55; 6HR MAX TEMP:  64;

HOLLAND        PTCLDY    63  38  39 S7        29.90F
6HR MIN TEMP:  61; 6HR MAX TEMP:  70;

GRAND RAPIDS   MOCLDY    60  36  40 S9        29.92F
6HR MIN TEMP:  59; 6HR MAX TEMP:  65;

IONIA          FAIR      61  36  39 S8        29.92F
KALAMAZOO      PTCLDY    62  37  39 S12       29.95F
LUDINGTON      MOCLDY    61  32  33 S16       29.84F
6HR MIN TEMP:  51; 6HR MAX TEMP:  65;

MARSHALL       CLEAR     60  35  38 S8        29.95F
MOUNT PLEASANT CLEAR     54  37  51 SE5       29.93F
6HR MIN TEMP:  50; 6HR MAX TEMP:  59;

MUSKEGON       MOCLDY    62  33  33 S7        29.89F
6HR MIN TEMP:  58; 6HR MAX TEMP:  65;

SOUTH HAVEN    PTCLDY    67  31  26 S10       29.92S
$$
MIZ016>042-020100-
NORTHERN LOWER MICHIGAN

CITY           SKY/WX    TMP DP  RH WIND       PRES   REMARKS
ALPENA         CLOUDY    43  29  57 SE15      29.94F
6HR MIN TEMP:  41; 6HR MAX TEMP:  46;

BEAVER ISLAND  CLOUDY    39  31  71 E5        29.84R
6HR MIN TEMP:  39; 6HR MAX TEMP:  47;

BELLAIRE       MOCLDY    56  28  33 SE7       29.84F
6HR MIN TEMP:  52; 6HR MAX TEMP:  59;

CADILLAC       MOCLDY    55  31  40 SE7       29.87F
CHARLEVOIX     CLOUDY    55  28  36 SE8       29.85F
6HR MIN TEMP:  42; 6HR MAX TEMP:  56;

FRANKFORT      CLOUDY    59  25  27 S6        29.81F
GAYLORD        PTCLDY    50  27  40 S8        29.86F
6HR MIN TEMP:  46; 6HR MAX TEMP:  52; 6HR PCP: TRACE;

GRAYLING       PTCLDY    51  28  41 S8        29.90F
HARBOR SPRINGS MOCLDY    47  30  50 E5        29.84F
HOUGHTON LAKE  PTCLDY    50  30  46 SE8       29.91F
6HR MIN TEMP:  49; 6HR MAX TEMP:  56;

MANISTEE       MOCLDY    61  28  29 S7G18     29.84F
OSCODA         MOCLDY    39  33  80 SE5       29.97F
PELLSTON       MOCLDY    44  29  55 S3        29.85F
6HR MIN TEMP:  44; 6HR MAX TEMP:  51; 6HR PCP: TRACE;

ROGERS CITY    MOCLDY    39  30  69 SE13      29.90F WCI  32
TRAVERSE CITY  CLOUDY    59  29  31 SE6       29.82F
6HR MIN TEMP:  53; 6HR MAX TEMP:  62;

$$
MIZ007>008-015-020100-
EASTERN UPPER MICHIGAN

CITY           SKY/WX    TMP DP  RH WIND       PRES   REMARKS
KINROSS        CLOUDY    36  27  69 E9        29.91R WCI  29
6HR MIN TEMP:  36; 6HR MAX TEMP:  45;

MACKINAC ISLAN CLOUDY    34  30  86 E12G18    29.87F WCI  25
6HR MIN TEMP:  33; 6HR MAX TEMP:  37;

NEWBERRY       CLOUDY    37  29  73 SE7       29.87R WCI  31
S. S. MARIE    CLOUDY    36  23  59 E12G17    29.92R WCI  28
6HR MIN TEMP:  36; 6HR MAX TEMP:  43; 6HR PCP:  0.01;

$$
MIZ004>006-011>014-085-020100-
CENTRAL UPPER MICHIGAN

CITY           SKY/WX    TMP DP  RH WIND       PRES   REMARKS
MANISTIQUE     CLOUDY    37  32  80 E8        29.86R WCI  31
ESCANABA       CLOUDY    36  30  80 E10       29.79F WCI  28
6HR MIN TEMP:  34; 6HR MAX TEMP:  39;

MENOMINEE      CLOUDY    46  34  61 SE7       29.77S
6HR MIN TEMP:  39; 6HR MAX TEMP:  48;

SAWYER-GWINN   LGT RAIN  37  32  81 S14       29.75F WCI  29
$$
MIZ001>003-009>011-084-020100-
WESTERN UPPER MICHIGAN

CITY           SKY/WX    TMP DP  RH WIND       PRES   REMARKS
IRON MOUNTAIN  CLOUDY    46  30  53 SE13      29.69F
6HR MIN TEMP:  45; 6HR MAX TEMP:  54; 6HR PCP: TRACE;

HOUGHTON       LGT RAIN  43  36  76 S12       29.59F
6HR MIN TEMP:  32; 6HR MAX TEMP:  44; 6HR PCP:  0.01;

COPPER HARBOR    N/A     40  29  64 S22G35    29.61F WCI  30
6HR MIN TEMP:  33; 6HR MAX TEMP:  41; 6HR PCP:  0.04;

IRONWOOD       CLOUDY    57  37  47 S17G25    29.47F
6HR MIN TEMP:  54; 6HR MAX TEMP:  59;

$$

ABBREVIATIONS USED IN REMARKS
   TC - TEMPERATURE IN CELSIUS
  WCI - WIND CHILL INDEX
   HX - HEAT INDEX
  VSB - VISIBILITY



USA.gov is the U.S. government's official web portal to all federal, state and local government web resources and services.